Gainesville, GA

10:39 PM EDT on June 19, 2018 (GMT -0400)
Gilmer Memorial

Weather History for KGVL - November, 2017

Change the Weather History Date:

Tuesday, November 14, 2017

  Actual Average Record
Temperature  
Mean Temperature 51 °F 53 °F  
Max Temperature 58 °F 63 °F 79 °F (1931)
Min Temperature 43 °F 44 °F 23 °F (1941)
Degree Days  
Heating Degree Days 14 12  
Month to date heating degree days 107 141  
Since 1 July heating degree days 253 299  
Moisture  
Dew Point 42 °F    
Average Humidity 78    
Maximum Humidity 100    
Minimum Humidity 55    
Precipitation  
Precipitation 0.00 in 0.13 in 1.34 in (1998)
Month to date precipitation 0.67 1.68  
Year to date precipitation 47.16 46.69  
Snow  
Snow 0.00 in - - ()
Month to date snowfall 0.0  
Since 1 July snowfall 0.0  
Since 1 September snowfall 0.0  
Snow Depth 0.00 in    
Sea Level Pressure  
Sea Level Pressure 30.25 in    
Wind  
Wind Speed 6 mph (East)    
Max Wind Speed 12 mph    
Max Gust Speed 15 mph    
Visibility 10 miles    
Events      
T = Trace of Precipitation, MM = Missing Value Source: NWS Daily Summary

Daily Weather History Graph

Daily Weather History Graph

Search for Another Location

Airport or City:

Astronomy

Nov. 14, 2017 Rise Set
Actual Time 7:07 AM EST 5:31 PM EST
Civil Twilight 6:41 AM EST 5:58 PM EST
Nautical Twilight 6:10 AM EST 6:28 PM EST
Astronomical Twilight 5:41 AM EST 6:58 PM EST
Moon 3:20 AM EST (11/14) 3:44 PM EST (11/14)
Length of Visible Light 11h 17m
Length of Day
10h 23m
Waning Crescent, 14% of the Moon is Illuminated
Nov 14
Waning Crescent
Nov 18
New
Nov 26
First Quarter
Dec 3
Full
Dec 10
Last Quarter

Hourly Weather History & Observations

Time (EST) Temp. Windchill Dew Point Humidity Pressure Visibility Wind Dir Wind Speed Gust Speed Precip Events Conditions
12:53 AM 48.0 °F - 46.9 °F 96% 30.27 in 10.0 mi East 6.9 mph - N/A   Clear
1:36 AM 48.9 °F - 48.0 °F 97% 30.28 in 10.0 mi East 9.2 mph - N/A   Mostly Cloudy
1:51 AM 48.2 °F - 46.4 °F 93% 30.28 in 10.0 mi East 8.1 mph - N/A   Scattered Clouds
1:53 AM 48.9 °F - 46.9 °F 93% 30.26 in 10.0 mi East 10.4 mph - N/A   Scattered Clouds
2:53 AM 46.0 °F 42.5 °F 44.1 °F 93% 30.26 in 10.0 mi East 6.9 mph - N/A   Clear
3:53 AM 45.0 °F 41.2 °F 43.0 °F 93% 30.27 in 10.0 mi East 6.9 mph - N/A   Clear
4:53 AM 45.0 °F 41.8 °F 42.1 °F 90% 30.27 in 10.0 mi East 5.8 mph - N/A   Clear
5:53 AM 44.1 °F 41.5 °F 41.0 °F 89% 30.27 in 10.0 mi ENE 4.6 mph - N/A   Partly Cloudy
6:53 AM 44.1 °F 40.8 °F 41.0 °F 89% 30.28 in 10.0 mi East 5.8 mph - N/A   Mostly Cloudy
7:53 AM 45.0 °F 40.6 °F 41.0 °F 86% 30.31 in 10.0 mi East 8.1 mph - N/A   Overcast
8:53 AM 46.0 °F 41.4 °F 41.0 °F 83% 30.32 in 10.0 mi East 9.2 mph - N/A   Mostly Cloudy
9:53 AM 48.0 °F - 39.9 °F 74% 30.33 in 10.0 mi ENE 8.1 mph - N/A   Overcast
10:53 AM 52.0 °F - 42.1 °F 69% 30.32 in 10.0 mi East 9.2 mph - N/A   Clear
11:53 AM 55.0 °F - 42.1 °F 62% 30.29 in 10.0 mi Variable 4.6 mph - N/A   Partly Cloudy
12:42 PM 54.0 °F - 42.1 °F 64% 30.27 in 10.0 mi ESE 5.8 mph - N/A   Mostly Cloudy
12:53 PM 55.9 °F - 42.1 °F 60% 30.25 in 10.0 mi Variable 4.6 mph - N/A   Overcast
1:15 PM 55.0 °F - 42.1 °F 62% 30.24 in 10.0 mi Variable 3.5 mph - N/A   Mostly Cloudy
1:53 PM 54.0 °F - 41.0 °F 62% 30.22 in 10.0 mi NE 3.5 mph - N/A   Scattered Clouds
2:53 PM 57.9 °F - 41.0 °F 53% 30.20 in 10.0 mi Variable 4.6 mph - N/A   Partly Cloudy
3:53 PM 55.9 °F - 39.9 °F 55% 30.19 in 10.0 mi Calm Calm - N/A   Clear
4:53 PM 55.0 °F - 39.9 °F 57% 30.19 in 10.0 mi SSE 5.8 mph - N/A   Clear
5:53 PM 51.1 °F - 42.1 °F 71% 30.20 in 10.0 mi ESE 4.6 mph - N/A   Clear
6:53 PM 48.9 °F - 42.1 °F 77% 30.21 in 10.0 mi ESE 4.6 mph - N/A   Clear
7:53 PM 48.0 °F - 41.0 °F 77% 30.21 in 10.0 mi East 5.8 mph - N/A   Clear
8:53 PM 45.0 °F 41.8 °F 41.0 °F 86% 30.22 in 10.0 mi East 5.8 mph - N/A   Clear
9:53 PM 44.1 °F 41.5 °F 39.9 °F 85% 30.22 in 10.0 mi East 4.6 mph - N/A   Partly Cloudy
10:53 PM 46.0 °F 43.9 °F 41.0 °F 83% 30.22 in 10.0 mi ESE 4.6 mph - N/A   Overcast
11:53 PM 46.9 °F - 41.0 °F 80% 30.21 in 10.0 mi East 4.6 mph - N/A   Overcast